Weather in Petuhovo

Russia / Kurgan Oblast     55˚03′54″N   67˚53′14″E
temp.,
°C
wind,
m/s
gust,
m/s
humid.,
%
clouds,
%
prec.,
mm/h
press.,
hPa
HPBL,
m
30 november, mon
mon3023:00−18˚nnw339635 0.0 105048
02:00−18˚nnw339742 0.0 105035
05:00−19˚nnw239738 0.0 105129
08:00−19˚n23970 0.0 105121
11:00−17˚n12940 0.0 105276
14:00−16˚n12940 0.0 105279
17:00−19˚n11950 0.0 105320
20:00−19˚ne11960 0.0 105320
1 december, tue
tue123:00−19˚nne11950 0.0 105320
02:00−19˚sse11950 0.0 105320
05:00−19˚wsw11943 0.0 105320
08:00−19˚sw009418 0.0 105320
11:00−17˚ssw119225 0.0 105320
14:00−16˚s11910 0.0 105220
17:00−18˚sse11890 0.0 105220
20:00−18˚sse12870 0.0 105220
2 december, wed
wed223:00−18˚s12890 0.0 105220
02:00−18˚sse12900 0.0 105120
05:00−18˚se12910 0.0 105020
08:00−18˚sse22920 0.0 104920
11:00−15˚se22910 0.0 104836
14:00−14˚se229017 0.0 104729
17:00−17˚e11919 0.0 104620
20:00−17˚ese22910 0.0 104420
3 december, thu
thu323:00−17˚se22920 0.0 104420
02:00−18˚se12910 0.0 104320
05:00−18˚e22890 0.0 104220
08:00−18˚e22900 0.0 104220
11:00−16˚e22910 0.0 104248
14:00−15˚ene22920 0.0 104241
17:00−17˚ene23900 0.0 104120
20:00−18˚ene23890 0.0 104120
4 december, fri
fri423:00−18˚ene23880 0.0 104120
02:00−18˚ne23870 0.0 104120
05:00−18˚ne23850 0.0 104020
08:00−18˚ne22850 0.0 104020
11:00−16˚ne12860 0.0 104131
14:00−15˚nne22850 0.0 104148
17:00−17˚nne22840 0.0 104020
20:00−17˚nne22830 0.0 104120